UAE5276 OPKC-OMDB

Flight info

Callsign UAE5276
Flight time 1h 38m
Altitude 34000
Route MELOM A454 PASOV B540 KUPMA/N0441F240 B540 MIVEK P574 IMPED
Aircraft A343/H-SDE2E3FGHIJ4J5M1RWXY/LB1D1

Departure

Time 2026-04-26 20:06
Airport Jinnah International Airport (OPKC)

Arrival

Time 2026-04-26 21:45
Airport Dubai International Airport (OMDB)
Time Latitude Longitude Altitude Speed Heading
2026-04-26 19:31 24.90298 67.16838 105 ft 0 kts 125°
2026-04-26 19:56 24.90308 67.16823 104 ft 4 kts 124°
2026-04-26 19:56 24.90322 67.16798 104 ft 4 kts 121°
2026-04-26 19:56 24.90336 67.16772 104 ft 4 kts 116°
2026-04-26 19:56 24.90345 67.16745 105 ft 4 kts 98°
2026-04-26 19:57 24.90345 67.16724 104 ft 4 kts 22°
2026-04-26 19:57 24.90343 67.16722 104 ft 0 kts 345°
2026-04-26 20:02 24.90377 67.16712 105 ft 6 kts 345°
2026-04-26 20:02 24.90420 67.16699 105 ft 6 kts 344°
2026-04-26 20:02 24.90449 67.16697 106 ft 6 kts
2026-04-26 20:03 24.90494 67.16772 106 ft 11 kts 72°
2026-04-26 20:03 24.90515 67.16855 107 ft 11 kts 75°
2026-04-26 20:03 24.90542 67.16958 106 ft 15 kts 73°
2026-04-26 20:03 24.90570 67.17067 106 ft 15 kts 74°
2026-04-26 20:04 24.90598 67.17175 106 ft 15 kts 73°
2026-04-26 20:04 24.90626 67.17282 106 ft 15 kts 74°
2026-04-26 20:04 24.90657 67.17387 108 ft 14 kts 62°
2026-04-26 20:04 24.90714 67.17441 107 ft 10 kts 30°
2026-04-26 20:05 24.90772 67.17478 108 ft 10 kts 29°
2026-04-26 20:05 24.90839 67.17487 110 ft 10 kts 347°
2026-04-26 20:05 24.90863 67.17456 111 ft 3 kts 280°
2026-04-26 20:05 24.90849 67.17381 109 ft 25 kts 256°
2026-04-26 20:06 24.90745 67.16967 109 ft 89 kts 255°
2026-04-26 20:06 24.90521 67.16081 108 ft 148 kts 254°
2026-04-26 20:06 24.90199 67.14813 245 ft 186 kts 254°
2026-04-26 20:06 24.89839 67.13421 927 ft 192 kts 255°
2026-04-26 20:07 24.89192 67.12119 1559 ft 210 kts 232°
2026-04-26 20:07 24.88102 67.10915 1991 ft 225 kts 227°
2026-04-26 20:07 24.86956 67.09723 2511 ft 233 kts 227°
2026-04-26 20:07 24.85780 67.08467 3115 ft 236 kts 227°
2026-04-26 20:08 24.84606 67.07176 3714 ft 241 kts 228°
2026-04-26 20:08 24.83419 67.05846 4306 ft 246 kts 227°
2026-04-26 20:08 24.82211 67.04479 4895 ft 251 kts 227°
2026-04-26 20:08 24.80983 67.03083 5475 ft 256 kts 227°
2026-04-26 20:09 24.79733 67.01657 6048 ft 262 kts 227°
2026-04-26 20:09 24.78584 67.00088 6529 ft 264 kts 242°
2026-04-26 20:09 24.78087 66.98157 6797 ft 267 kts 269°
2026-04-26 20:09 24.78215 66.96079 7143 ft 278 kts 277°
2026-04-26 20:10 24.78464 66.93953 7712 ft 282 kts 277°
2026-04-26 20:10 24.78715 66.91793 8323 ft 286 kts 277°
2026-04-26 20:10 24.78961 66.89606 8950 ft 290 kts 277°
2026-04-26 20:10 24.79206 66.87390 9571 ft 294 kts 278°
2026-04-26 20:11 24.79450 66.85137 10071 ft 302 kts 278°
2026-04-26 20:11 24.79707 66.82783 10338 ft 318 kts 278°
2026-04-26 20:11 24.80263 66.80383 10565 ft 332 kts 295°
2026-04-26 20:12 24.83348 66.76374 11020 ft 359 kts 317°
2026-04-26 20:12 24.85204 66.74458 11247 ft 371 kts 317°
2026-04-26 20:12 24.87113 66.72477 11524 ft 381 kts 317°
2026-04-26 20:12 24.89052 66.70451 11920 ft 387 kts 316°
2026-04-26 20:13 24.91006 66.68400 12370 ft 390 kts 316°
2026-04-26 20:13 24.92977 66.66324 12834 ft 394 kts 316°
2026-04-26 20:13 24.94805 66.64057 13284 ft 398 kts 306°
2026-04-26 20:13 24.96124 66.61423 13758 ft 400 kts 291°
2026-04-26 20:14 24.96718 66.58434 14217 ft 402 kts 274°
2026-04-26 20:14 24.96761 66.55339 14671 ft 405 kts 268°
2026-04-26 20:14 24.96564 66.52239 15126 ft 407 kts 264°
2026-04-26 20:14 24.96250 66.49137 15620 ft 408 kts 263°
2026-04-26 20:15 24.95896 66.46021 16128 ft 410 kts 262°
2026-04-26 20:15 24.95546 66.42900 16597 ft 413 kts 263°
2026-04-26 20:15 24.95212 66.39749 17140 ft 413 kts 263°
2026-04-26 20:15 24.94897 66.36593 17688 ft 414 kts 263°
2026-04-26 20:16 24.94594 66.33433 18180 ft 417 kts 263°
2026-04-26 20:16 24.94296 66.30240 18580 ft 420 kts 263°
2026-04-26 20:16 24.93997 66.27027 18985 ft 423 kts 263°
2026-04-26 20:16 24.93698 66.23795 19455 ft 423 kts 263°
2026-04-26 20:17 24.93401 66.20586 20066 ft 421 kts 263°
2026-04-26 20:17 24.93101 66.17356 20415 ft 425 kts 263°
2026-04-26 20:17 24.92801 66.14142 21133 ft 418 kts 264°
2026-04-26 20:17 24.92606 66.12044 21680 ft 413 kts 264°
2026-04-26 20:18 24.92218 66.07888 22455 ft 411 kts 264°
2026-04-26 20:18 24.91926 66.04746 22883 ft 414 kts 264°
2026-04-26 20:18 24.91631 66.01585 23280 ft 417 kts 264°
2026-04-26 20:18 24.91332 65.98395 23611 ft 419 kts 264°
2026-04-26 20:19 24.91031 65.95200 24003 ft 420 kts 264°
2026-04-26 20:19 24.90727 65.91991 24375 ft 422 kts 264°
2026-04-26 20:19 24.90421 65.88768 24669 ft 425 kts 264°
2026-04-26 20:19 24.90112 65.85525 24992 ft 427 kts 264°
2026-04-26 20:20 24.89799 65.82258 25300 ft 430 kts 264°
2026-04-26 20:20 24.89485 65.78972 25615 ft 432 kts 264°
2026-04-26 20:20 24.89169 65.75681 25925 ft 434 kts 264°
2026-04-26 20:20 24.88850 65.72366 26233 ft 436 kts 264°
2026-04-26 20:21 24.88528 65.69031 26553 ft 438 kts 264°
2026-04-26 20:21 24.88205 65.65687 26839 ft 440 kts 264°
2026-04-26 20:21 24.87880 65.62328 27136 ft 442 kts 264°
2026-04-26 20:21 24.87553 65.58958 27440 ft 444 kts 264°
2026-04-26 20:22 24.87223 65.55573 27729 ft 445 kts 264°
2026-04-26 20:22 24.86892 65.52177 28014 ft 447 kts 264°
2026-04-26 20:22 24.86563 65.48810 28282 ft 449 kts 264°
2026-04-26 20:22 24.86226 65.45379 28548 ft 451 kts 264°
2026-04-26 20:23 24.85887 65.41932 28815 ft 453 kts 264°
2026-04-26 20:23 24.85547 65.38478 29092 ft 455 kts 263°
2026-04-26 20:23 24.85206 65.35023 29477 ft 453 kts 263°
2026-04-26 20:23 24.84865 65.31572 29869 ft 452 kts 263°
2026-04-26 20:24 24.84524 65.28138 30198 ft 450 kts 264°
2026-04-26 20:24 24.84184 65.24714 30570 ft 448 kts 264°
2026-04-26 20:24 24.83845 65.21312 30846 ft 448 kts 264°
2026-04-26 20:24 24.83504 65.17898 31127 ft 448 kts 264°
2026-04-26 20:25 24.83162 65.14491 31391 ft 447 kts 264°
2026-04-26 20:25 24.82484 65.07741 31925 ft 446 kts 264°
2026-04-26 20:25 24.82141 65.04339 32195 ft 446 kts 264°
2026-04-26 20:26 24.81799 65.00952 32452 ft 446 kts 264°
2026-04-26 20:26 24.81455 64.97558 32708 ft 445 kts 264°
2026-04-26 20:26 24.81111 64.94171 32972 ft 444 kts 263°
2026-04-26 20:26 24.80768 64.90800 33231 ft 444 kts 263°
2026-04-26 20:27 24.80423 64.87417 33458 ft 444 kts 263°
2026-04-26 20:27 24.80078 64.84042 33646 ft 445 kts 263°
2026-04-26 20:27 24.79731 64.80648 33728 ft 448 kts 263°
2026-04-26 20:28 24.79023 64.73761 33752 ft 457 kts 263°
2026-04-26 20:28 24.78298 64.66737 33762 ft 467 kts 263°
2026-04-26 20:29 24.77562 64.59640 33751 ft 470 kts 263°
2026-04-26 20:29 24.76818 64.52504 33745 ft 468 kts 263°
2026-04-26 20:30 24.76073 64.45392 33757 ft 468 kts 263°
2026-04-26 20:30 24.75451 64.39469 33747 ft 468 kts 263°
2026-04-26 20:31 24.74699 64.32350 33756 ft 468 kts 263°
2026-04-26 20:31 24.73946 64.25255 33755 ft 467 kts 263°
2026-04-26 20:32 24.73190 64.18160 33751 ft 467 kts 263°
2026-04-26 20:32 24.72431 64.11066 33752 ft 467 kts 263°
2026-04-26 20:33 24.71668 64.03974 33756 ft 467 kts 263°
2026-04-26 20:33 24.70901 63.96878 33745 ft 466 kts 263°
2026-04-26 20:34 24.70137 63.89838 33748 ft 466 kts 263°
2026-04-26 20:34 24.69366 63.82759 33746 ft 466 kts 263°
2026-04-26 20:35 24.68592 63.75686 33757 ft 466 kts 263°
2026-04-26 20:35 24.67813 63.68607 33748 ft 465 kts 263°
2026-04-26 20:36 24.67034 63.61550 33749 ft 465 kts 263°
2026-04-26 20:36 24.66251 63.54487 33758 ft 465 kts 263°
2026-04-26 20:37 24.65464 63.47427 33754 ft 465 kts 263°
2026-04-26 20:37 24.64674 63.40362 33745 ft 465 kts 263°
2026-04-26 20:38 24.63883 63.33321 33752 ft 464 kts 263°
2026-04-26 20:38 24.63093 63.26325 33754 ft 464 kts 263°
2026-04-26 20:39 24.62298 63.19308 33753 ft 462 kts 263°
2026-04-26 20:39 24.61500 63.12293 33749 ft 462 kts 263°
2026-04-26 20:40 24.60699 63.05290 33752 ft 461 kts 263°
2026-04-26 20:40 24.59903 62.98347 33747 ft 461 kts 263°
2026-04-26 20:41 24.59098 62.91362 33749 ft 461 kts 263°
2026-04-26 20:41 24.58290 62.84379 33748 ft 461 kts 263°
2026-04-26 20:42 24.57479 62.77399 33751 ft 461 kts 263°
2026-04-26 20:42 24.56665 62.70416 33749 ft 460 kts 263°
2026-04-26 20:43 24.55847 62.63435 33758 ft 461 kts 263°
2026-04-26 20:43 24.55026 62.56455 33747 ft 461 kts 263°
2026-04-26 20:44 24.54200 62.49477 33756 ft 461 kts 263°
2026-04-26 20:44 24.53365 62.42494 33743 ft 461 kts 264°
2026-04-26 20:45 24.52537 62.35505 33754 ft 461 kts 264°
2026-04-26 20:45 24.51712 62.28565 33744 ft 461 kts 263°
2026-04-26 20:46 24.50875 62.21577 33755 ft 461 kts 264°
2026-04-26 20:46 24.50029 62.14590 33748 ft 462 kts 264°
2026-04-26 20:47 24.49182 62.07603 33743 ft 462 kts 264°
2026-04-26 20:47 24.48337 62.00613 33744 ft 462 kts 264°
2026-04-26 20:48 24.47488 61.93624 33753 ft 462 kts 264°
2026-04-26 20:48 24.46633 61.86634 33749 ft 461 kts 264°
2026-04-26 20:49 24.45775 61.79655 33741 ft 461 kts 264°
2026-04-26 20:49 24.44921 61.72727 33754 ft 461 kts 264°
2026-04-26 20:50 24.44059 61.65759 33745 ft 461 kts 264°
2026-04-26 20:50 24.43193 61.58793 33754 ft 461 kts 264°
2026-04-26 20:51 24.42323 61.51819 33756 ft 461 kts 264°
2026-04-26 20:51 24.41450 61.44849 33751 ft 461 kts 264°
2026-04-26 20:52 24.40617 61.37908 33750 ft 460 kts 267°
2026-04-26 20:52 24.40845 61.30924 33750 ft 457 kts 279°
2026-04-26 20:53 24.41776 61.24037 33753 ft 456 kts 279°
2026-04-26 20:53 24.42745 61.17146 33751 ft 456 kts 280°
2026-04-26 20:54 24.43713 61.10260 33742 ft 456 kts 279°
2026-04-26 20:54 24.44672 61.03419 33749 ft 456 kts 280°
2026-04-26 20:55 24.45634 60.96540 33749 ft 455 kts 279°
2026-04-26 20:55 24.46589 60.89682 33743 ft 454 kts 279°
2026-04-26 20:56 24.47539 60.82839 33741 ft 453 kts 279°
2026-04-26 20:56 24.48486 60.75992 33741 ft 453 kts 279°
2026-04-26 20:57 24.49428 60.69156 33742 ft 452 kts 279°
2026-04-26 20:57 24.50365 60.62335 33745 ft 452 kts 279°
2026-04-26 20:58 24.51293 60.55557 33741 ft 452 kts 279°
2026-04-26 20:58 24.52224 60.48733 33746 ft 452 kts 279°
2026-04-26 20:59 24.53154 60.41900 33746 ft 451 kts 279°
2026-04-26 20:59 24.54076 60.35096 33745 ft 450 kts 279°
2026-04-26 21:00 24.54994 60.28297 33743 ft 450 kts 279°
2026-04-26 21:00 24.55909 60.21497 33754 ft 450 kts 279°
2026-04-26 21:01 24.56821 60.14699 33751 ft 449 kts 279°
2026-04-26 21:01 24.57723 60.07942 33756 ft 446 kts 279°
2026-04-26 21:02 24.58617 60.01234 33750 ft 446 kts 279°
2026-04-26 21:02 24.59518 59.94442 33749 ft 446 kts 279°
2026-04-26 21:03 24.60405 59.87733 33745 ft 446 kts 279°
2026-04-26 21:03 24.61296 59.80972 33759 ft 445 kts 279°
2026-04-26 21:04 24.62180 59.74241 33756 ft 445 kts 279°
2026-04-26 21:04 24.63063 59.67499 33754 ft 445 kts 279°
2026-04-26 21:05 24.63936 59.60804 33752 ft 445 kts 279°
2026-04-26 21:05 24.64810 59.54072 33753 ft 444 kts 279°
2026-04-26 21:06 24.65682 59.47339 33762 ft 444 kts 279°
2026-04-26 21:06 24.66549 59.40617 33764 ft 444 kts 279°
2026-04-26 21:07 24.67413 59.33897 33758 ft 442 kts 279°
2026-04-26 21:07 24.68265 59.27245 33760 ft 441 kts 279°
2026-04-26 21:08 24.69118 59.20560 33760 ft 441 kts 279°
2026-04-26 21:08 24.69968 59.13876 33765 ft 441 kts 279°
2026-04-26 21:09 24.70815 59.07191 33768 ft 441 kts 279°
2026-04-26 21:09 24.71659 59.00505 33765 ft 441 kts 279°
2026-04-26 21:10 24.72499 58.93829 33765 ft 440 kts 279°
2026-04-26 21:10 24.73335 58.87168 33767 ft 440 kts 279°
2026-04-26 21:11 24.74166 58.80508 33765 ft 440 kts 279°
2026-04-26 21:11 24.74996 58.73840 33771 ft 440 kts 279°
2026-04-26 21:12 24.75822 58.67176 33769 ft 440 kts 279°
2026-04-26 21:12 24.76639 58.60556 33766 ft 440 kts 279°
2026-04-26 21:13 24.77460 58.53883 33774 ft 440 kts 279°
2026-04-26 21:13 24.78277 58.47211 33766 ft 439 kts 279°
2026-04-26 21:14 24.79091 58.40543 33771 ft 438 kts 279°
2026-04-26 21:14 24.79900 58.33891 33772 ft 438 kts 279°
2026-04-26 21:15 24.80701 58.27282 33777 ft 438 kts 279°
2026-04-26 21:15 24.81504 58.20636 33770 ft 438 kts 279°
2026-04-26 21:16 24.82304 58.13982 33774 ft 438 kts 279°
2026-04-26 21:16 24.83101 58.07336 33778 ft 438 kts 279°
2026-04-26 21:17 24.83894 58.00688 33775 ft 438 kts 279°
2026-04-26 21:17 24.84685 57.94036 33776 ft 438 kts 279°
2026-04-26 21:18 24.85327 57.88498 33784 ft 438 kts 276°
2026-04-26 21:18 24.86045 57.81847 33776 ft 437 kts 277°
2026-04-26 21:19 24.86801 57.75197 33588 ft 437 kts 277°
2026-04-26 21:19 24.87185 57.71879 33333 ft 437 kts 277°
2026-04-26 21:19 24.87572 57.68552 33078 ft 438 kts 277°
2026-04-26 21:19 24.87955 57.65268 32823 ft 440 kts 277°
2026-04-26 21:20 24.88345 57.61919 32568 ft 442 kts 277°
2026-04-26 21:20 24.88736 57.58559 32311 ft 443 kts 276°
2026-04-26 21:20 24.89128 57.55185 32056 ft 445 kts 276°
2026-04-26 21:20 24.89520 57.51803 31823 ft 446 kts 276°
2026-04-26 21:21 24.89913 57.48409 31402 ft 446 kts 276°
2026-04-26 21:21 24.90304 57.45024 30721 ft 447 kts 276°
2026-04-26 21:21 24.90698 57.41617 29989 ft 450 kts 275°
2026-04-26 21:21 24.91092 57.38183 29139 ft 453 kts 275°
2026-04-26 21:22 24.91489 57.34745 28332 ft 454 kts 275°
2026-04-26 21:22 24.91889 57.31273 27597 ft 454 kts 275°
2026-04-26 21:22 24.92284 57.27843 27093 ft 449 kts 275°
2026-04-26 21:23 24.93053 57.21123 26039 ft 441 kts 275°
2026-04-26 21:23 24.93431 57.17792 25506 ft 437 kts 275°
2026-04-26 21:23 24.93808 57.14474 24992 ft 434 kts 275°
2026-04-26 21:23 24.94180 57.11189 24450 ft 431 kts 275°
2026-04-26 21:24 24.94548 57.07925 23923 ft 428 kts 275°
2026-04-26 21:24 24.94914 57.04683 23402 ft 425 kts 275°
2026-04-26 21:24 24.95278 57.01455 22806 ft 423 kts 275°
2026-04-26 21:24 24.95637 56.98259 22260 ft 419 kts 275°
2026-04-26 21:25 24.95992 56.95091 21739 ft 415 kts 275°
2026-04-26 21:25 24.96343 56.91949 21219 ft 411 kts 274°
2026-04-26 21:25 24.96691 56.88830 20706 ft 408 kts 274°
2026-04-26 21:25 24.97035 56.85732 20183 ft 405 kts 274°
2026-04-26 21:26 24.97376 56.82663 19678 ft 403 kts 274°
2026-04-26 21:26 24.97716 56.79604 19173 ft 400 kts 274°
2026-04-26 21:26 24.98052 56.76565 18671 ft 398 kts 274°
2026-04-26 21:26 24.98386 56.73545 18174 ft 396 kts 274°
2026-04-26 21:27 24.98719 56.70533 17623 ft 394 kts 274°
2026-04-26 21:27 24.99047 56.67549 17125 ft 391 kts 274°
2026-04-26 21:27 24.99369 56.64618 16645 ft 388 kts 274°
2026-04-26 21:27 24.99691 56.61687 16172 ft 384 kts 274°
2026-04-26 21:28 25.00010 56.58765 15679 ft 382 kts 274°
2026-04-26 21:28 25.00327 56.55868 15206 ft 379 kts 275°
2026-04-26 21:28 25.00639 56.53009 14852 ft 373 kts 274°
2026-04-26 21:28 25.00946 56.50176 14412 ft 370 kts 274°
2026-04-26 21:29 25.01249 56.47365 13946 ft 369 kts 275°
2026-04-26 21:29 25.01551 56.44556 13440 ft 368 kts 275°
2026-04-26 21:29 25.01852 56.41757 12939 ft 367 kts 275°
2026-04-26 21:29 25.02153 56.38975 12454 ft 364 kts 275°
2026-04-26 21:30 25.02451 56.36215 12028 ft 360 kts 275°
2026-04-26 21:30 25.02738 56.33547 11892 ft 348 kts 275°
2026-04-26 21:30 25.03017 56.30942 11771 ft 336 kts 275°
2026-04-26 21:30 25.03285 56.28428 11644 ft 325 kts 275°
2026-04-26 21:31 25.03542 56.26014 11506 ft 306 kts 275°
2026-04-26 21:31 25.03787 56.23769 11387 ft 285 kts 275°
2026-04-26 21:31 25.04023 56.21599 11260 ft 287 kts 275°
2026-04-26 21:31 25.04257 56.19410 11203 ft 286 kts 275°
2026-04-26 21:32 25.04488 56.17230 11033 ft 286 kts 275°
2026-04-26 21:32 25.04720 56.15045 10952 ft 286 kts 275°
2026-04-26 21:32 25.04951 56.12866 10834 ft 286 kts 275°
2026-04-26 21:32 25.05178 56.10702 10594 ft 283 kts 275°
2026-04-26 21:33 25.05406 56.08549 10283 ft 283 kts 275°
2026-04-26 21:33 25.05634 56.06400 10010 ft 282 kts 276°
2026-04-26 21:33 25.05863 56.04263 9719 ft 280 kts 276°
2026-04-26 21:33 25.06089 56.02140 9401 ft 278 kts 276°
2026-04-26 21:34 25.06313 56.00025 9091 ft 277 kts 276°
2026-04-26 21:34 25.06535 55.97918 8785 ft 275 kts 276°
2026-04-26 21:34 25.06755 55.95834 8399 ft 273 kts 276°
2026-04-26 21:34 25.06970 55.93789 8017 ft 271 kts 276°
2026-04-26 21:35 25.07186 55.91735 7645 ft 269 kts 276°
2026-04-26 21:35 25.07399 55.89694 7267 ft 266 kts 276°
2026-04-26 21:35 25.07611 55.87673 6914 ft 264 kts 276°
2026-04-26 21:35 25.07820 55.85671 6558 ft 262 kts 276°
2026-04-26 21:36 25.08028 55.83673 6273 ft 261 kts 277°
2026-04-26 21:36 25.08232 55.81720 6095 ft 251 kts 277°
2026-04-26 21:36 25.08430 55.79840 5896 ft 243 kts 277°
2026-04-26 21:36 25.08622 55.78006 5688 ft 238 kts 277°
2026-04-26 21:37 25.08812 55.76200 5571 ft 238 kts 277°
2026-04-26 21:37 25.09002 55.74383 5435 ft 239 kts 277°
2026-04-26 21:37 25.09190 55.72568 5329 ft 237 kts 277°
2026-04-26 21:37 25.09378 55.70763 5238 ft 234 kts 277°
2026-04-26 21:38 25.09558 55.69013 5121 ft 225 kts 277°
2026-04-26 21:38 25.09735 55.67322 4998 ft 218 kts 277°
2026-04-26 21:38 25.09910 55.65692 4893 ft 210 kts 278°
2026-04-26 21:38 25.10254 55.64163 4756 ft 202 kts 290°
2026-04-26 21:39 25.10822 55.62781 4642 ft 195 kts 296°
2026-04-26 21:39 25.11466 55.61479 4419 ft 192 kts 298°
2026-04-26 21:39 25.12127 55.60234 4217 ft 185 kts 298°
2026-04-26 21:39 25.12779 55.59030 3927 ft 181 kts 298°
2026-04-26 21:40 25.13426 55.57851 3657 ft 178 kts 301°
2026-04-26 21:40 25.14075 55.56692 3411 ft 177 kts 301°
2026-04-26 21:40 25.14709 55.55549 3213 ft 176 kts 300°
2026-04-26 21:40 25.15333 55.54417 2977 ft 169 kts 300°
2026-04-26 21:41 25.15924 55.53347 2762 ft 158 kts 300°
2026-04-26 21:41 25.16484 55.52333 2582 ft 152 kts 300°
2026-04-26 21:41 25.17033 55.51343 2389 ft 151 kts 301°
2026-04-26 21:41 25.17568 55.50379 2206 ft 143 kts 300°
2026-04-26 21:42 25.18077 55.49458 2010 ft 138 kts 301°
2026-04-26 21:42 25.18577 55.48556 1846 ft 138 kts 301°
2026-04-26 21:42 25.19066 55.47651 1678 ft 137 kts 299°
2026-04-26 21:42 25.19562 55.46756 1467 ft 135 kts 302°
2026-04-26 21:43 25.20052 55.45876 1290 ft 135 kts 300°
2026-04-26 21:43 25.20552 55.44984 1131 ft 138 kts 302°
2026-04-26 21:43 25.21050 55.44071 975 ft 140 kts 301°
2026-04-26 21:43 25.21557 55.43132 786 ft 143 kts 299°
2026-04-26 21:44 25.22083 55.42199 629 ft 147 kts 301°
2026-04-26 21:44 25.22641 55.41215 424 ft 150 kts 300°
2026-04-26 21:44 25.23174 55.40237 226 ft 147 kts 298°
2026-04-26 21:44 25.23699 55.39288 45 ft 146 kts 300°
2026-04-26 21:45 25.24173 55.38435 30 ft 106 kts 301°
2026-04-26 21:45 25.24463 55.37915 28 ft 52 kts 302°
2026-04-26 21:45 25.24597 55.37607 26 ft 39 kts 283°
2026-04-26 21:45 25.24612 55.37410 28 ft 19 kts 271°
2026-04-26 21:46 25.24624 55.37283 28 ft 13 kts 280°
2026-04-26 21:46 25.24609 55.37239 29 ft 6 kts 225°
2026-04-26 21:46 25.24574 55.37212 27 ft 7 kts 211°
2026-04-26 21:46 25.24534 55.37185 29 ft 6 kts 212°
2026-04-26 21:47 25.24507 55.37166 28 ft 3 kts 212°
2026-04-26 21:47 25.24484 55.37150 28 ft 4 kts 211°
2026-04-26 21:47 25.24477 55.37145 28 ft 0 kts 211°